Simultaneous Nadir Overpasses (SNOs) Predictions

Prediction of SNOs between GOES-16 and AQUA Satellite Orbit:

Table of predicted SNOs for the next 14.0 days since TLE Epoch: 9/5/2025
Index Date Time (GOES-16) GOES-16 Lat,Lon AQUA Lat,Lon Distance(km) Time Diff (sec)
1 09/07/2025 21:46:40 0.12,-104.66 0.41,-103.28 157.46 80
2 09/08/2025 10:05:45 -0.11,-104.67 0.55,-107.89 365.69 80
3 09/10/2025 09:42:28 -0.12,-104.67 -0.54,-102.84 208.34 80
4 09/10/2025 22:01:41 0.11,-104.66 -0.49,-107.48 321.29 80
5 09/12/2025 21:43:43 0.12,-104.65 0.60,-102.43 252.90 80
6 09/13/2025 10:02:46 -0.11,-104.66 0.39,-107.03 269.86 80
7 09/15/2025 09:39:28 -0.12,-104.65 -0.69,-101.97 304.00 80
8 09/15/2025 21:58:40 0.12,-104.63 -0.30,-106.62 225.87 80
9 09/17/2025 21:40:40 0.13,-104.62 0.79,-101.56 349.12 80
10 09/18/2025 09:59:44 -0.12,-104.64 0.18,-106.17 172.90 80
